Location: Ariel
(45.9570°N, 122.5700°W)
Time: 13:17:10
(UTC-07:00)

A-11 Canister half - Pass Details

Date: 30 August 2019
Orbit: 1514 x 1686 km, 47.2° (Epoch: 23 October)

Event Time Altitude Azimuth Distance (km) Brightness Sun altitude
Rises 00:30:27 0° 291° (WNW) 4,786 12.0 -34.2°
Reaches altitude 10° 00:34:08 10° 280° (W) 3,825 11.3 -34.4°
Enters shadow 00:39:44 25° 246° (WSW) 2,862 10.2 -34.5°
